Temp
76 80 83 84 68 65 55 55 63 61 61 67 69 66 62 63 58 53 71 71 71 70 71 70 67 69 70 71 72 72 71 71 70 69 67 68 69 69 68 69 69 72 76 77 78 78 78 75 75
79 79 84 78 64 56 53 61 58 61 63 66 67 67 64 57 65 65 66 69 70 70 69 69 65 67 68 70 71 71 71 71 71 70 69 67 69 69 68 68 68 70 72 75 77 78 77 74 74
76 78 76 66 62 54 53 59 62 64 67 67 64 68 63 57 66 66 69 69 69 69 68 67 64 65 67 68 69 71 71 70 71 70 70 69 68 68 68 67 67 70 71 72 74 76 76 74 74
80 82 75 62 53 56 58 61 63 64 68 68 67 58 64 67 65 67 70 69 68 67 67 65 62 64 65 66 67 68 70 71 70 70 70 70 70 69 69 67 69 70 72 71 72 72 73 73 73
80 77 61 56 53 58 62 63 65 62 63 66 66 59 58 64 68 69 68 68 66 66 65 65 61 61 62 64 65 66 67 69 70 70 70 70 69 69 69 69 68 69 71 72 71 73 71 71 72
72 74 58 53 53 58 62 63 65 63 65 64 64 61 58 66 65 65 67 65 66 64 63 64 62 60 61 61 62 63 65 67 68 68 68 68 67 67 67 67 68 69 69 70 71 72 71 70 71
67 64 54 55 53 55 58 63 62 62 63 61 65 58 61 63 63 65 65 66 65 64 63 63 63 62 60 59 60 60 62 65 66 66 66 65 65 65 64 64 67 68 67 68 69 70 71 71 70
68 66 54 56 54 51 59 61 62 62 58 66 66 56 56 59 62 65 65 64 63 62 62 61 62 62 61 62 60 59 62 63 64 64 63 62 63 62 61 60 63 65 66 66 67 66 67 70 69
65 61 54 52 55 54 60 60 61 63 62 60 60 57 56 60 62 61 61 61 60 60 60 60 60 61 61 62 62 60 61 62 62 64 61 62 62 60 60 59 59 61 63 65 65 65 63 62 62
64 59 52 57 60 58 58 60 59 61 60 57 56 58 58 60 59 57 56 56 56 56 58 59 59 59 60 63 61 60 62 63 64 64 65 63 61 59 58 57 56 57 57 61 62 61 60 59 58
57 54 57 56 60 62 58 57 59 59 53 53 52 53 56 57 56 55 55 54 54 56 57 57 58 59 59 59 60 59 60 61 62 63 63 63 61 59 60 58 60 60 58 62 62 58 57 58 57
53 56 58 56 56 58 56 59 54 54 50 54 54 54 55 54 53 52 53 53 54 55 56 57 58 59 59 60 60 56 59 60 62 61 61 61 60 58 58 58 57 60 58 56 56 57 56 56 57
54 54 55 56 56 56 58 55 52 50 53 54 54 53 53 52 52 53 54 54 55 54 55 56 58 58 58 59 60 58 58 58 58 59 58 59 58 57 58 57 57 58 57 56 55 55 54 53 55
54 55 53 56 55 54 54 52 55 53 53 52 53 52 52 51 51 53 53 53 53 54 54 57 57 57 57 58 58 55 59 58 57 55 56 56 55 55 55 56 56 56 57 58 54 52 51 52 52
53 49 54 52 53 52 58 49 46 50 52 50 51 51 51 50 52 51 51 51 52 53 54 54 55 57 56 56 55 54 56 56 54 54 54 53 54 54 53 54 54 55 56 55 54 51 51 50 50
50 51 48 49 52 51 52 42 46 49 52 49 51 51 51 50 50 51 52 52 53 53 53 54 55 55 55 56 55 55 54 54 52 52 52 52 53 54 52 52 52 54 55 54 53 51 48 47 46
48 46 45 45 49 48 52 43 45 49 51 49 50 50 50 51 51 51 51 52 52 53 53 53 54 53 53 55 57 56 56 56 54 50 49 50 50 51 52 51 50 51 52 53 53 52 49 46 45
44 43 42 44 45 49 46 42 45 47 49 48 49 49 50 50 49 51 51 51 53 53 53 54 53 53 54 55 57 57 56 55 54 52 48 48 48 49 49 51 51 51 50 51 50 49 47 46 45
47 46 44 42 44 44 43 43 44 46 48 47 47 48 49 48 50 51 51 52 51 52 52 52 51 52 52 51 51 53 51 52 51 51 50 47 46 47 46 46 49 50 49 49 49 47 46 44 45
46 44 41 42 43 45 43 41 44 45 43 44 46 47 47 48 50 50 51 51 50 50 50 50 50 51 51 51 51 52 52 53 52 51 50 49 45 45 45 44 45 48 49 49 48 47 44 44 45
41 42 39 41 41 43 44 39 40 42 44 44 44 44 45 45 46 48 48 49 50 48 48 49 49 50 49 49 51 52 53 54 50 49 48 48 47 44 42 42 43 46 47 47 48 47 46 43 44
39 42 42 39 41 38 40 35 38 41 40 42 42 44 45 45 46 47 48 48 48 47 48 49 48 49 48 48 47 46 45 43 45 46 47 47 47 46 44 41 42 44 46 45 46 48 47 45 43
38 43 41 39 38 37 36 35 40 40 37 40 42 42 43 44 44 45 45 45 46 46 47 47 48 48 47 47 46 46 44 45 46 45 43 44 45 45 43 44 41 42 44 45 45 46 46 47 45
41 40 39 38 37 29 34 34 39 36 41 41 41 41 41 43 44 45 45 45 45 46 46 47 46 46 45 46 46 45 44 43 43 42 40 41 43 43 42 42 44 41 42 43 44 45 45 45 46
41 38 31 28 26 29 30 31 41 43 41 43 41 41 41 42 43 42 41 42 43 43 44 44 43 41 43 43 43 43 43 43 42 41 40 39 40 40 41 41 41 41 41 42 43 44 44 43 43
38 36 33 28 27 30 30 26 39 41 42 42 41 41 40 40 40 39 39 41 41 41 41 41 40 39 40 41 41 41 41 41 41 41 40 40 39 40 41 41 41 42 43 42 42 43 43 43 43
35 32 36 22 13 25 33 35 37 36 37 38 39 39 38 38 37 37 38 39 38 38 37 37 38 37 38 38 38 38 39 38 38 39 40 39 40 40 40 40 40 41 41 43 42 40 40 42 42
37 39 30 29 24 23 27 26 38 30 34 37 37 38 38 36 36 36 36 36 36 36 37 37 36 35 36 36 36 36 36 36 37 37 36 36 38 38 39 39 39 40 41 41 42 40 40 39 39
32 31 30 34 30 28 26 34 44 41 39 37 39 39 37 36 35 35 34 34 34 35 35 35 35 34 33 34 34 34 33 34 34 34 34 34 36 36 37 37 38 38 39 41 40 41 40 38 37
34 35 35 32 24 25 25 31 38 40 43 41 39 37 36 36 35 34 33 33 33 32 32 32 32 32 31 32 32 31 32 32 30 29 30 32 31 33 35 36 37 37 38 40 40 39 39 39 37
MSLP
1015.09 1014.54 1014.16 1013.33 1013.74 1015.23 1016.60 1018.51 1019.05 1019.18 1019.48 1020.22 1020.04 1019.98 1021.05 1021.55 1021.84 1023.04 1024.04 1024.17 1023.91 1023.31 1022.57 1021.80 1021.10 1020.31 1019.56 1018.75 1018.30 1018.00 1017.91 1017.49 1017.15 1017.17 1017.06 1017.23 1016.80 1016.60 1016.20 1015.24 1014.59 1013.55 1012.77 1012.34 1012.12 1011.90 1011.88 1012.20 1012.43
1015.06 1014.43 1013.81 1013.61 1014.14 1015.41 1017.75 1018.91 1019.45 1019.94 1020.27 1020.54 1020.62 1020.80 1021.36 1022.64 1023.41 1023.86 1024.19 1024.47 1024.19 1023.56 1023.03 1022.38 1021.83 1020.64 1019.74 1019.10 1018.52 1018.28 1017.98 1017.49 1017.25 1017.03 1016.66 1016.67 1016.21 1015.56 1015.84 1015.00 1014.30 1013.81 1013.01 1012.32 1012.00 1011.70 1011.60 1012.01 1012.28
1015.25 1014.64 1013.99 1014.69 1015.55 1016.55 1018.50 1019.69 1019.98 1020.40 1020.55 1020.45 1020.87 1021.68 1022.53 1023.98 1024.24 1024.71 1025.08 1024.83 1024.41 1023.74 1023.21 1022.70 1022.25 1021.19 1020.02 1019.30 1018.95 1018.14 1017.90 1017.67 1017.39 1017.12 1016.66 1016.60 1016.34 1016.44 1015.19 1015.25 1015.22 1013.60 1012.88 1012.21 1011.67 1011.56 1011.58 1011.70 1012.01
1014.81 1014.41 1015.73 1015.79 1017.23 1019.13 1019.53 1020.29 1020.51 1020.43 1020.58 1021.03 1021.37 1022.56 1024.28 1025.67 1025.47 1025.71 1025.36 1025.07 1024.58 1024.02 1023.39 1022.91 1022.42 1021.69 1020.82 1019.65 1019.01 1018.79 1018.02 1017.66 1017.26 1017.27 1016.96 1016.66 1016.36 1015.98 1015.53 1014.88 1013.46 1013.34 1012.36 1011.85 1011.57 1011.26 1011.05 1011.63 1011.92
1014.87 1014.77 1015.91 1017.52 1018.74 1019.95 1020.59 1020.98 1020.90 1020.81 1021.18 1021.38 1021.68 1023.05 1024.63 1026.13 1026.35 1026.07 1025.66 1025.42 1024.85 1024.31 1023.83 1023.09 1022.73 1021.97 1021.09 1020.34 1019.70 1019.10 1018.56 1018.00 1017.36 1017.25 1016.92 1016.57 1015.96 1015.72 1015.58 1014.92 1014.39 1013.79 1012.36 1011.65 1011.22 1011.11 1011.18 1011.25 1011.84
1014.67 1015.52 1016.71 1018.10 1019.53 1020.61 1021.20 1021.70 1021.42 1021.45 1021.63 1022.04 1022.43 1023.43 1025.56 1026.61 1026.50 1026.42 1026.17 1025.76 1025.31 1024.85 1024.21 1023.43 1022.81 1022.21 1021.57 1020.59 1019.95 1019.53 1018.95 1018.40 1017.72 1017.38 1017.00 1016.54 1016.31 1015.82 1015.60 1014.94 1014.20 1013.13 1012.80 1011.72 1011.00 1010.74 1010.95 1010.87 1011.68
1015.44 1016.08 1018.06 1019.09 1020.33 1021.04 1021.73 1022.21 1022.01 1022.09 1022.26 1022.87 1023.49 1023.84 1025.71 1026.38 1027.07 1026.91 1026.60 1026.06 1025.49 1025.10 1024.45 1023.65 1022.95 1022.40 1021.64 1021.20 1020.33 1019.54 1019.12 1018.41 1017.99 1017.60 1017.24 1016.89 1016.54 1016.05 1015.91 1015.27 1014.53 1014.15 1013.15 1012.32 1011.48 1010.80 1010.82 1010.62 1011.23
1016.95 1017.29 1018.91 1019.83 1020.41 1021.55 1022.27 1022.44 1022.98 1022.77 1023.53 1024.09 1024.22 1024.97 1026.25 1027.50 1027.58 1027.03 1026.56 1026.13 1025.60 1025.20 1024.80 1024.22 1023.39 1022.56 1022.00 1021.23 1020.55 1019.93 1019.36 1018.82 1018.30 1017.93 1017.59 1017.32 1016.67 1016.29 1016.17 1015.98 1015.54 1015.12 1013.78 1012.65 1012.21 1011.74 1011.05 1010.19 1010.24
1018.05 1017.99 1019.46 1020.63 1020.95 1021.98 1022.62 1022.60 1023.62 1024.15 1024.20 1025.14 1026.15 1027.14 1028.27 1028.34 1027.86 1026.92 1026.30 1025.99 1025.63 1025.29 1024.78 1024.42 1023.88 1023.07 1022.44 1021.48 1020.71 1020.21 1019.53 1018.75 1018.25 1017.90 1017.43 1017.17 1016.79 1016.78 1016.46 1016.26 1016.13 1015.34 1014.40 1013.43 1013.16 1012.60 1011.97 1011.20 1010.29
1018.23 1019.26 1020.96 1021.84 1021.96 1022.37 1023.07 1023.20 1023.85 1024.22 1024.86 1025.91 1027.06 1028.09 1028.59 1028.38 1027.97 1027.52 1027.11 1026.78 1026.51 1025.98 1025.41 1024.93 1024.22 1023.49 1022.60 1021.83 1021.43 1020.63 1019.71 1018.94 1018.38 1017.86 1017.30 1017.18 1016.86 1016.93 1016.67 1016.29 1016.27 1015.74 1015.05 1014.35 1014.02 1013.76 1013.04 1012.64 1012.67
1020.22 1020.80 1022.10 1022.76 1022.95 1023.07 1023.54 1024.06 1024.70 1024.78 1026.00 1027.24 1027.67 1028.46 1028.69 1028.53 1028.37 1028.29 1028.28 1028.15 1027.65 1026.89 1026.06 1025.36 1024.73 1023.99 1023.44 1022.28 1021.48 1020.94 1020.21 1019.45 1018.64 1017.95 1017.72 1017.45 1017.04 1016.65 1016.51 1016.47 1015.92 1015.73 1015.16 1014.91 1014.52 1014.21 1013.90 1013.42 1013.51
1021.53 1022.72 1022.91 1023.78 1024.04 1023.82 1024.09 1024.89 1025.86 1026.56 1027.94 1028.69 1029.04 1029.31 1029.20 1028.95 1028.98 1029.01 1028.73 1028.53 1027.94 1027.23 1026.64 1025.89 1025.20 1024.42 1023.79 1023.18 1022.41 1021.79 1020.85 1019.98 1018.99 1018.27 1018.00 1017.69 1017.29 1017.07 1016.91 1016.49 1016.23 1015.96 1015.66 1015.68 1015.45 1015.14 1014.73 1014.33 1014.21
1022.19 1023.29 1023.80 1024.51 1024.71 1024.85 1024.95 1025.56 1026.62 1028.05 1028.94 1029.42 1029.75 1029.83 1029.77 1029.88 1029.85 1029.83 1029.56 1029.11 1028.48 1027.65 1027.08 1026.33 1025.51 1024.80 1024.17 1023.42 1022.89 1022.54 1021.63 1021.16 1020.12 1019.42 1018.89 1018.25 1018.05 1017.78 1017.19 1016.59 1016.35 1016.36 1016.31 1016.11 1015.92 1015.67 1015.28 1015.19 1014.95
1023.35 1023.83 1024.36 1024.90 1025.28 1025.58 1025.48 1026.43 1026.69 1028.52 1029.34 1029.48 1029.56 1029.78 1030.10 1030.25 1030.32 1030.05 1029.74 1029.32 1028.75 1028.25 1027.46 1026.79 1026.06 1025.37 1024.80 1024.05 1023.42 1023.02 1022.16 1021.75 1021.02 1020.55 1020.02 1019.18 1018.78 1018.26 1017.86 1017.44 1017.00 1016.63 1016.62 1016.39 1016.41 1016.29 1016.06 1015.90 1015.84
1023.99 1024.10 1024.58 1025.20 1025.57 1025.91 1025.56 1026.65 1028.02 1029.22 1029.38 1029.68 1030.01 1030.17 1030.33 1030.49 1030.43 1030.22 1030.22 1029.91 1029.69 1029.03 1028.32 1027.35 1026.51 1025.79 1025.19 1024.66 1024.34 1023.46 1022.74 1022.41 1022.04 1021.44 1020.82 1020.17 1019.31 1018.76 1018.20 1017.76 1017.43 1017.06 1017.01 1016.81 1016.75 1016.89 1016.78 1016.65 1016.61
1023.87 1024.19 1024.39 1025.70 1025.83 1026.27 1026.35 1027.56 1028.80 1029.55 1029.59 1029.77 1029.98 1030.36 1030.67 1030.83 1030.81 1030.82 1030.68 1030.42 1030.05 1029.48 1028.58 1027.81 1027.17 1026.31 1025.47 1025.04 1024.65 1023.89 1023.55 1023.08 1022.76 1022.23 1021.56 1020.92 1019.95 1019.05 1018.66 1018.16 1017.63 1017.36 1017.13 1017.08 1017.00 1017.17 1017.39 1017.29 1017.47
1023.81 1023.75 1024.55 1025.95 1026.61 1026.49 1026.27 1027.88 1029.31 1029.84 1029.77 1029.90 1030.24 1030.49 1030.69 1030.73 1030.87 1031.04 1030.95 1030.69 1030.23 1029.83 1029.19 1028.31 1027.68 1027.25 1026.55 1025.49 1024.93 1024.53 1024.11 1023.68 1023.48 1022.92 1022.39 1021.86 1020.77 1019.92 1018.87 1018.25 1017.93 1017.69 1017.34 1017.11 1016.99 1017.47 1017.70 1017.87 1017.97
1023.15 1023.87 1024.91 1025.72 1027.13 1026.85 1027.14 1028.30 1029.38 1030.01 1030.09 1030.30 1030.57 1030.68 1030.77 1030.77 1030.94 1031.10 1031.08 1030.97 1030.56 1030.15 1029.57 1028.67 1028.01 1027.61 1027.09 1026.43 1025.44 1024.99 1024.50 1024.29 1023.90 1023.44 1022.87 1022.09 1021.73 1020.98 1019.87 1018.76 1018.14 1017.69 1017.55 1017.28 1017.07 1017.12 1017.91 1018.20 1018.26
1023.44 1023.97 1024.83 1026.39 1027.56 1027.54 1027.96 1028.62 1029.40 1030.16 1030.39 1030.56 1030.72 1030.69 1030.71 1030.92 1031.06 1031.09 1031.12 1031.05 1030.81 1030.44 1029.68 1029.25 1028.95 1028.56 1027.73 1027.22 1026.59 1025.62 1025.32 1024.91 1024.39 1023.81 1023.43 1023.21 1022.40 1021.50 1020.55 1019.73 1018.68 1018.01 1017.65 1017.45 1017.33 1017.38 1017.47 1018.31 1018.62
1024.38 1024.81 1025.73 1026.92 1027.65 1027.61 1028.47 1028.96 1029.52 1030.08 1030.69 1030.87 1030.79 1030.86 1030.91 1030.88 1030.74 1030.91 1030.95 1030.91 1030.80 1030.67 1030.31 1029.83 1029.52 1029.09 1028.45 1027.76 1027.40 1026.67 1025.90 1025.54 1025.07 1024.66 1024.23 1023.61 1023.06 1022.20 1021.33 1020.58 1019.55 1018.60 1017.93 1017.54 1017.36 1017.49 1017.58 1017.93 1018.16
1025.90 1025.88 1026.41 1026.97 1027.83 1028.25 1028.24 1028.86 1029.40 1030.35 1030.88 1031.21 1031.20 1031.24 1031.28 1031.23 1031.07 1030.87 1030.81 1030.85 1030.88 1030.86 1030.79 1030.47 1030.22 1029.53 1029.03 1028.31 1027.64 1026.88 1026.24 1025.56 1025.19 1024.49 1024.29 1024.13 1023.68 1023.00 1022.13 1021.51 1020.56 1019.29 1018.43 1017.69 1017.32 1017.36 1017.36 1017.63 1018.06
1026.77 1027.11 1027.18 1027.58 1027.81 1027.98 1028.63 1027.80 1028.45 1029.40 1030.21 1030.73 1030.95 1031.05 1031.20 1031.48 1031.46 1031.20 1031.11 1030.93 1030.99 1031.18 1031.14 1030.95 1030.49 1029.89 1029.58 1029.02 1028.42 1028.11 1027.68 1027.20 1026.80 1026.18 1025.18 1024.38 1023.82 1023.47 1022.59 1022.24 1021.37 1020.28 1019.12 1018.42 1017.85 1017.47 1017.43 1017.64 1017.70
1027.67 1027.87 1027.84 1028.07 1028.12 1028.26 1028.24 1028.23 1027.28 1028.93 1029.42 1029.95 1030.68 1031.10 1031.32 1031.65 1031.67 1031.51 1031.49 1031.52 1031.35 1031.41 1031.19 1031.21 1030.84 1030.26 1029.85 1029.42 1029.20 1028.74 1028.32 1027.87 1027.36 1026.83 1026.00 1024.80 1024.11 1023.68 1023.12 1022.70 1022.12 1021.09 1019.78 1019.04 1018.67 1017.94 1017.68 1017.40 1017.51
1028.03 1028.22 1028.62 1028.76 1028.50 1028.46 1027.97 1028.17 1026.57 1027.71 1027.78 1029.36 1030.48 1031.08 1031.37 1031.59 1031.67 1031.69 1031.83 1031.89 1031.69 1031.64 1031.46 1031.30 1031.15 1030.79 1030.54 1030.12 1029.76 1029.37 1028.90 1028.27 1027.64 1027.28 1026.70 1025.89 1025.10 1024.37 1023.74 1023.27 1022.47 1021.87 1020.76 1019.93 1019.16 1018.53 1018.20 1017.68 1017.23
1028.27 1028.21 1028.64 1029.11 1028.97 1028.05 1028.74 1028.55 1025.83 1026.87 1028.02 1028.79 1029.90 1030.90 1031.44 1031.74 1031.87 1032.11 1032.25 1032.19 1032.16 1032.10 1031.88 1031.82 1031.63 1031.41 1031.18 1030.71 1030.35 1029.91 1029.51 1028.93 1028.44 1028.04 1027.52 1026.87 1026.05 1025.29 1024.81 1024.06 1023.16 1022.33 1021.75 1020.76 1019.84 1019.24 1018.64 1018.25 1018.03
1027.92 1028.02 1028.08 1028.44 1028.95 1028.61 1029.01 1027.59 1026.39 1027.41 1028.53 1029.47 1030.16 1030.89 1031.57 1031.98 1032.35 1032.68 1032.88 1032.71 1032.57 1032.67 1032.61 1032.60 1032.32 1031.95 1031.84 1031.30 1030.99 1030.60 1030.17 1029.73 1029.27 1028.85 1028.24 1027.58 1027.00 1026.38 1025.62 1024.80 1023.88 1022.99 1022.12 1021.37 1020.51 1019.65 1019.38 1018.87 1018.58
1028.48 1028.60 1028.48 1028.89 1030.49 1029.04 1027.30 1026.66 1026.97 1027.93 1028.69 1029.57 1030.06 1030.82 1031.55 1032.20 1032.71 1033.11 1033.23 1033.29 1033.30 1033.36 1033.35 1033.27 1032.92 1032.51 1032.54 1032.12 1031.70 1031.27 1030.93 1030.60 1030.19 1029.58 1028.93 1028.18 1027.48 1026.85 1026.06 1025.34 1024.47 1023.45 1022.69 1021.96 1021.30 1020.54 1019.90 1019.42 1018.96
1028.46 1028.68 1028.92 1028.77 1028.81 1028.06 1026.79 1026.48 1024.99 1026.84 1027.38 1028.65 1029.55 1030.41 1031.50 1032.46 1033.00 1033.42 1033.54 1033.77 1034.00 1033.92 1033.90 1033.87 1033.44 1033.00 1033.23 1032.88 1032.45 1032.06 1031.81 1031.39 1031.03 1030.34 1029.59 1028.87 1028.15 1027.37 1026.51 1025.57 1024.95 1024.26 1023.28 1022.43 1021.84 1021.21 1020.76 1020.26 1019.55
1029.09 1028.78 1028.84 1028.38 1028.10 1027.38 1026.70 1024.54 1023.92 1024.65 1026.04 1027.36 1028.80 1030.12 1031.34 1032.31 1032.95 1033.45 1033.84 1034.18 1034.46 1034.39 1034.32 1034.15 1033.80 1033.55 1033.66 1033.51 1033.18 1032.73 1032.50 1032.17 1031.70 1031.11 1030.47 1029.69 1028.85 1028.07 1027.11 1026.13 1025.42 1024.80 1023.71 1022.97 1022.54 1021.90 1021.20 1020.54 1020.15
1028.54 1028.16 1028.00 1027.90 1028.27 1027.96 1027.38 1024.69 1024.61 1025.15 1025.82 1027.24 1028.66 1030.17 1031.33 1032.26 1033.06 1033.66 1034.15 1034.43 1034.77 1034.79 1034.72 1034.54 1034.40 1034.21 1034.25 1034.16 1033.86 1033.53 1033.26 1032.91 1032.53 1032.03 1031.36 1030.49 1029.67 1028.90 1027.87 1026.80 1025.94 1025.22 1024.48 1023.70 1022.97 1022.39 1021.76 1021.21 1020.69
Wind_Speed
11 6 3 1 4 9 12 7 4 11 7 9 11 13 18 13 11 7 10 17 20 18 19 19 28 27 25 25 18 14 15 16 14 11 9 11 13 13 21 23 23 18 19 19 18 16 14 14 14
7 3 0 3 6 9 8 6 10 9 3 4 6 5 10 11 10 3 9 19 19 17 16 17 25 26 25 25 23 14 10 13 14 10 10 7 16 18 17 20 23 17 14 19 20 19 16 15 16
3 4 4 4 3 8 8 6 5 6 8 3 5 10 7 7 7 8 11 18 19 17 16 17 24 25 26 24 23 23 18 12 13 12 13 10 8 13 13 20 18 18 14 14 18 21 17 18 18
1 3 4 12 18 11 12 7 5 4 6 8 8 10 8 11 8 12 12 16 16 16 17 18 24 24 25 25 23 22 21 20 19 17 14 13 14 10 14 16 25 23 19 14 17 19 19 15 17
3 3 6 10 14 10 8 8 7 8 4 9 0 9 8 8 11 12 11 15 16 17 17 18 22 24 24 24 23 22 21 19 19 19 18 19 17 16 15 15 21 23 23 15 13 15 15 15 18
4 0 7 8 12 10 9 6 7 8 7 6 9 7 8 7 13 14 13 17 16 17 17 18 19 23 22 23 23 23 20 18 18 18 17 18 16 15 16 19 20 20 23 16 13 13 20 22 19
5 5 8 14 12 8 6 2 8 8 8 11 4 6 6 15 16 13 13 15 15 16 16 17 18 20 21 21 21 23 20 19 17 17 16 15 15 12 15 17 19 19 17 18 16 11 18 23 22
3 5 10 6 8 6 3 4 3 7 10 2 6 6 5 15 15 12 11 15 16 17 17 18 19 18 18 16 18 21 19 17 13 13 13 13 12 12 12 14 15 15 14 16 13 14 15 25 27
2 4 8 6 8 8 4 4 5 3 14 17 8 10 6 9 12 15 18 19 18 17 19 18 18 19 18 16 15 16 17 15 10 9 8 9 6 7 7 8 11 13 13 13 12 10 18 23 20
5 5 4 3 7 10 7 6 5 6 11 11 12 10 8 10 15 16 17 17 19 20 19 18 19 18 18 13 15 14 15 12 10 9 10 5 6 6 5 5 7 9 11 11 11 11 11 11 7
6 6 11 7 8 7 9 12 3 9 9 7 8 9 11 14 16 16 16 16 16 16 15 19 18 17 18 15 11 8 7 9 8 10 8 7 5 5 5 4 5 5 6 4 5 6 5 7 6
11 7 5 4 3 5 8 7 13 13 7 9 9 9 12 16 15 15 16 17 18 18 17 18 18 17 17 11 10 10 10 10 10 8 8 7 5 5 4 4 5 5 4 5 5 3 5 5 7
15 8 7 7 9 9 11 12 13 13 9 9 9 11 14 13 13 13 12 13 15 17 17 17 17 16 15 14 12 10 10 10 12 12 11 8 7 6 5 4 4 4 3 4 4 4 4 5 5
6 12 10 8 9 6 12 9 1 8 1 8 10 13 12 13 13 12 15 16 16 16 17 16 16 16 15 14 15 11 11 12 10 11 13 11 7 6 6 5 3 3 3 1 3 4 4 4 5
8 12 9 9 5 5 9 9 9 8 8 12 11 11 12 13 13 15 13 14 15 13 14 16 16 17 15 15 13 10 11 11 11 11 13 16 9 7 6 5 3 3 3 3 2 4 4 4 5
4 3 5 4 5 2 6 4 10 6 10 12 11 10 11 12 12 12 12 12 13 14 16 15 15 18 18 15 12 9 10 10 10 12 12 17 15 11 6 5 4 3 1 2 2 3 3 5 5
2 4 5 5 6 2 4 9 6 5 8 11 10 10 9 10 11 11 11 11 12 13 15 16 18 19 18 16 11 12 15 12 11 10 11 17 17 16 11 5 3 4 2 1 3 3 2 3 4
7 6 3 4 5 11 13 12 7 6 7 9 9 9 8 9 11 11 11 11 12 13 14 16 15 18 16 12 11 11 11 12 12 12 11 16 13 17 13 10 6 3 2 1 1 6 5 3 4
9 9 7 4 3 4 8 11 8 6 6 7 7 7 7 9 7 8 9 11 11 12 13 15 15 16 12 12 11 11 11 11 12 12 17 14 14 16 15 11 11 5 4 3 2 2 6 3 2
7 10 5 4 5 3 9 9 7 6 4 3 4 6 7 7 8 8 9 8 10 11 12 12 14 15 12 9 8 6 8 7 7 10 13 16 14 14 14 14 13 11 5 4 3 3 2 2 2
4 2 4 2 4 6 11 6 8 5 6 5 4 3 5 7 9 10 9 8 8 8 9 9 11 13 13 15 10 10 7 7 11 11 11 13 16 13 15 15 13 12 8 6 3 4 5 3 3
4 3 6 5 4 2 3 3 10 10 7 4 4 5 6 7 7 8 10 8 7 7 6 8 10 14 12 13 12 14 10 10 10 11 11 11 15 16 14 14 15 14 8 9 7 2 4 4 4
5 4 5 3 2 3 5 5 6 12 10 9 5 3 4 4 6 8 10 10 4 5 6 7 10 13 13 13 12 10 11 9 8 9 14 15 14 16 16 16 13 14 10 8 9 7 3 4 3
13 8 6 3 1 4 4 4 9 12 18 11 6 3 2 4 6 8 9 8 5 5 6 7 11 11 12 12 12 13 13 13 11 13 11 11 11 11 16 17 13 12 13 11 8 7 7 5 2
1 5 2 3 3 3 2 4 7 13 8 11 10 6 3 2 5 7 8 8 6 7 8 8 11 12 13 13 13 13 14 13 13 12 10 13 11 11 14 15 14 12 12 12 11 7 7 6 6
8 4 3 5 4 2 2 8 2 6 8 7 6 5 2 0 5 4 4 6 7 8 9 9 10 12 13 13 13 13 14 10 10 11 10 8 9 11 14 14 13 14 15 12 12 8 7 6 4
6 5 4 8 1 3 3 4 6 9 11 10 9 7 5 1 1 2 5 6 7 7 9 9 10 11 13 13 12 13 13 14 13 14 12 10 10 10 13 13 14 14 15 15 13 8 10 9 6
2 7 4 1 4 6 4 6 8 15 19 16 13 10 7 4 4 4 5 6 6 6 7 8 9 11 11 12 11 11 12 13 13 12 14 15 13 13 13 13 14 14 13 15 14 10 9 9 7
5 4 1 2 2 4 4 5 3 15 19 21 15 11 9 8 6 5 5 5 5 6 7 8 9 11 11 11 11 12 12 13 12 12 13 14 14 15 14 13 12 14 13 13 13 13 12 11 9
2 4 8 5 6 1 3 7 0 4 11 17 14 11 9 8 7 6 5 4 4 5 7 8 9 10 10 10 11 11 11 12 13 13 14 15 14 14 14 13 12 12 13 12 13 14 14 13 11
Wind_Direction
320 322 291 270 89 75 75 74 59 48 81 55 63 77 76 36 9 45 338 1 344 344 344 344 346 349 349 355 340 355 340 356 43 39 358 358 352 355 346 338 337 324 266 237 224 213 195 186 167
322 320 255 75 100 106 82 77 71 53 47 159 87 100 56 62 26 50 354 341 346 345 344 347 346 347 347 352 356 353 346 349 4 360 15 340 349 346 348 338 336 333 315 260 234 217 197 182 163
270 358 41 54 77 86 106 69 68 73 49 123 114 53 44 11 28 355 357 341 343 350 349 351 349 350 347 349 351 5 359 349 342 343 343 338 350 335 342 341 317 334 323 301 261 228 206 175 167
320 109 94 83 94 73 96 80 57 122 85 50 104 84 98 33 360 350 338 346 347 351 351 350 352 353 350 348 351 357 354 354 360 347 343 338 337 344 330 321 339 334 337 302 294 238 209 187 170
53 89 80 96 90 104 90 66 64 79 62 52 128 103 79 33 3 357 347 354 353 355 353 350 354 352 352 348 350 353 352 346 353 347 357 347 345 344 336 340 327 327 336 310 273 251 198 203 188
91 54 117 107 110 106 84 57 68 74 66 63 92 99 79 29 7 1 357 358 358 357 353 352 354 353 352 351 349 349 348 348 352 346 348 352 353 354 349 351 344 336 347 350 308 269 199 200 188
82 71 96 118 119 114 88 50 61 73 64 40 9 73 115 24 2 355 359 1 3 5 359 357 355 355 352 352 350 351 349 348 360 355 357 346 342 354 355 358 357 359 5 1 2 302 214 194 173
74 87 130 123 144 109 95 109 93 51 58 74 0 44 48 358 354 1 12 14 9 8 5 0 355 356 355 348 345 343 349 341 357 354 356 345 348 3 6 6 359 357 358 15 23 26 30 220 153
313 92 115 119 144 124 108 143 78 86 90 58 58 60 30 1 3 17 15 13 9 6 2 2 359 355 352 349 349 344 345 340 339 347 5 352 4 0 351 353 352 3 2 17 24 57 71 75 68
36 91 98 78 106 116 94 91 91 128 109 99 87 69 39 29 28 27 20 11 8 4 1 359 358 356 352 351 350 346 347 349 334 343 349 357 0 351 346 337 343 350 358 9 19 31 62 88 90
30 100 124 94 100 118 106 78 56 128 79 46 73 56 39 36 33 29 25 18 5 1 3 1 357 357 356 350 349 350 341 341 331 342 348 343 351 353 348 338 350 340 355 347 345 25 12 61 81
104 80 100 107 70 105 106 100 75 53 61 85 79 64 46 40 34 23 17 12 8 8 5 3 -0 359 359 354 356 343 342 350 350 340 347 342 343 353 349 351 354 344 12 358 359 8 31 57 86
97 109 74 90 88 78 112 93 91 83 101 100 90 68 54 47 40 34 24 19 13 13 8 5 2 3 359 1 1 355 343 358 357 1 357 349 344 338 340 350 6 359 3 2 14 11 29 32 48
110 103 103 91 76 72 110 76 21 59 163 104 90 70 60 50 37 34 26 21 16 11 11 8 7 7 5 5 5 353 357 1 5 5 354 1 347 336 344 336 356 14 8 9 30 17 17 30 53
110 101 103 44 9 106 127 55 29 7 118 104 82 75 66 51 40 35 23 19 11 10 10 13 10 10 15 12 8 357 9 10 5 3 360 356 350 341 339 334 336 1 6 24 66 46 23 44 50
96 134 146 42 1 142 242 91 36 59 116 98 89 75 64 56 46 36 26 20 14 11 13 18 19 15 15 17 16 16 13 19 5 4 359 358 353 347 340 327 334 332 345 39 48 55 40 50 37
55 151 126 137 9 274 237 126 66 81 108 93 80 71 64 60 51 38 27 20 18 15 16 24 24 22 16 16 18 20 21 19 21 12 7 357 354 352 343 329 324 318 307 138 119 69 77 103 98
170 148 128 127 37 72 97 112 105 79 88 83 76 70 62 55 41 31 24 23 22 21 21 28 32 27 20 19 20 22 22 18 10 7 9 5 354 353 350 342 317 309 288 283 129 124 80 63 71
114 128 124 109 89 100 110 122 105 89 93 88 77 72 58 45 39 31 23 20 18 24 28 34 30 24 25 23 14 14 12 14 11 6 3 356 0 356 350 349 339 316 285 249 159 99 117 111 134
105 127 98 100 40 124 150 119 106 94 73 78 94 73 44 31 26 23 18 19 23 23 24 30 27 21 20 18 13 11 7 10 17 10 5 0 355 356 354 346 339 338 305 271 181 188 133 101 201
56 115 154 88 116 67 146 163 168 114 112 110 92 92 59 29 12 11 5 7 16 22 19 24 22 19 15 12 9 6 0 0 360 10 8 1 1 354 359 346 348 338 340 321 249 191 164 152 207
134 71 105 117 198 216 266 230 201 174 162 156 128 82 54 35 24 17 6 359 12 7 14 23 20 19 13 18 12 11 6 358 354 350 353 4 6 357 6 353 346 338 342 349 332 240 191 153 183
111 104 91 100 124 239 181 248 108 171 201 191 154 97 67 38 16 7 1 353 352 359 15 12 9 20 18 18 14 5 5 359 353 355 351 3 4 4 3 357 348 343 345 348 345 346 302 200 185
137 103 80 84 154 233 147 247 185 188 216 184 178 157 99 29 7 1 358 357 20 31 25 18 11 25 17 16 14 11 6 0 358 359 355 353 358 358 0 355 356 348 351 340 347 344 351 352 288
131 139 164 212 208 240 109 252 301 194 182 178 171 163 122 33 0 359 355 6 32 37 28 21 26 27 17 18 15 11 5 3 358 356 353 354 352 358 356 352 353 351 348 344 344 348 346 357 348
180 192 226 272 218 106 147 232 248 189 169 165 167 163 157 46 15 4 26 50 55 41 34 28 29 27 18 20 16 14 13 5 358 352 350 354 354 349 352 352 352 358 354 353 349 356 351 335 315
159 205 97 105 114 237 201 264 215 175 192 195 192 187 192 175 44 79 71 57 49 43 37 29 32 35 24 21 17 20 16 11 2 357 355 353 352 348 349 356 356 359 360 2 350 353 352 347 337
266 136 131 205 221 246 203 264 243 201 207 201 200 200 192 183 174 134 88 66 51 44 41 38 40 40 26 21 20 19 14 10 2 359 359 358 353 350 348 358 357 356 4 3 1 352 352 351 352
150 191 68 100 233 246 282 230 197 209 202 197 196 191 184 181 172 136 109 79 60 52 40 37 36 36 27 21 16 16 11 6 1 1 357 356 353 353 350 353 356 353 3 5 3 0 355 353 350
299 222 183 212 190 233 333 265 335 239 198 189 182 178 177 178 162 146 138 118 80 55 44 38 33 32 24 15 11 12 6 2 359 357 352 352 353 352 352 351 352 355 357 0 5 360 359 355 347